TimeAKST,TemperatureF,Dew PointF,Humidity,Sea Level PressureIn,VisibilityMPH,Wind Direction,Wind SpeedMPH,Gust SpeedMPH,PrecipitationIn,Events,Conditions,WindDirDegrees,DateUTC
12:53 AM,37.0,35.1,93,29.61,10.0,ESE,4.6,-,N/A,,Overcast,120,2014-01-08 09:53:00
1:53 AM,36.0,35.1,97,29.60,10.0,Calm,Calm,-,N/A,Fog,Patches of Fog,0,2014-01-08 10:53:00
2:05 AM,35.1,35.1,100,29.59,7.0,Calm,Calm,-,N/A,Fog,Patches of Fog,0,2014-01-08 11:05:00
3:18 AM,35.1,34.0,96,29.57,1.8,Calm,Calm,-,N/A,,Overcast,0,2014-01-08 12:18:00
3:27 AM,35.1,35.1,100,29.57,2.0,Calm,Calm,-,N/A,,Overcast,0,2014-01-08 12:27:00
3:48 AM,35.6,33.8,93,29.56,0.8,Calm,Calm,-,0.00,,Overcast,0,2014-01-08 12:48:00
3:53 AM,35.1,34.0,96,29.55,0.8,Calm,Calm,-,0.00,,Overcast,0,2014-01-08 12:53:00
4:53 AM,34.0,33.1,96,29.52,0.5,Calm,Calm,-,N/A,Fog,Fog,0,2014-01-08 13:53:00
5:26 AM,34.0,33.1,96,29.51,0.2,Calm,Calm,-,N/A,Fog,Fog,0,2014-01-08 14:26:00
5:33 AM,34.0,34.0,100,29.51,0.2,Calm,Calm,-,N/A,Fog,Fog,0,2014-01-08 14:33:00
5:45 AM,35.1,35.1,100,29.50,0.2,Calm,Calm,-,N/A,Fog,Fog,0,2014-01-08 14:45:00
5:53 AM,35.1,34.0,96,29.50,0.2,Calm,Calm,-,N/A,Fog,Fog,0,2014-01-08 14:53:00
6:29 AM,35.1,34.0,96,29.48,0.2,Calm,Calm,-,N/A,Fog,Fog,0,2014-01-08 15:29:00
6:47 AM,35.6,33.8,93,29.47,0.2,ENE,3.5,-,N/A,Fog,Fog,60,2014-01-08 15:47:00
6:53 AM,35.1,34.0,96,29.47,0.2,Calm,Calm,-,N/A,Fog,Fog,0,2014-01-08 15:53:00
7:27 AM,35.1,35.1,100,29.46,0.2,Calm,Calm,-,N/A,Fog,Fog,0,2014-01-08 16:27:00
7:53 AM,35.1,35.1,100,29.46,0.2,Calm,Calm,-,N/A,Fog,Fog,0,2014-01-08 16:53:00
8:53 AM,35.1,35.1,100,29.43,0.2,Calm,Calm,-,N/A,Fog,Fog,0,2014-01-08 17:53:00
9:53 AM,35.1,35.1,100,29.42,0.2,Calm,Calm,-,N/A,Fog,Fog,0,2014-01-08 18:53:00
10:53 AM,34.0,34.0,100,29.40,0.2,WNW,3.5,-,N/A,Fog,Fog,290,2014-01-08 19:53:00
11:36 AM,35.1,34.0,96,29.38,0.2,Calm,Calm,-,0.00,Fog-Rain,Light Rain,0,2014-01-08 20:36:00
11:44 AM,35.1,34.0,96,29.38,0.2,East,3.5,-,0.00,Fog-Rain,Light Rain,100,2014-01-08 20:44:00
11:53 AM,36.0,35.1,97,29.38,0.8,East,4.6,-,0.00,Rain,Light Rain,90,2014-01-08 20:53:00
12:23 PM,36.0,36.0,100,29.36,2.0,Calm,Calm,-,0.00,Rain,Light Rain,0,2014-01-08 21:23:00
12:53 PM,35.1,35.1,100,29.35,2.5,Calm,Calm,-,0.01,Rain,Light Rain,0,2014-01-08 21:53:00
1:04 PM,35.1,35.1,100,29.35,4.0,Calm,Calm,-,0.01,Rain,Light Rain,0,2014-01-08 22:04:00
1:38 PM,35.1,34.0,96,29.32,5.0,West,5.8,-,0.02,Rain,Light Rain,260,2014-01-08 22:38:00
1:53 PM,35.1,34.0,96,29.32,6.0,West,4.6,-,0.02,Rain,Light Rain,280,2014-01-08 22:53:00
2:53 PM,36.0,34.0,93,29.30,6.0,Calm,Calm,-,0.00,Rain,Light Rain,0,2014-01-08 23:53:00
3:53 PM,35.1,34.0,96,29.29,6.0,Calm,Calm,-,0.02,Rain,Light Rain,0,2014-01-09 00:53:00
4:53 PM,35.1,35.1,100,29.26,5.0,Calm,Calm,-,0.01,Rain,Light Rain,0,2014-01-09 01:53:00
5:53 PM,35.1,34.0,96,29.25,5.0,Calm,Calm,-,0.01,Rain,Light Rain,0,2014-01-09 02:53:00
6:53 PM,35.1,35.1,100,29.23,7.0,Calm,Calm,-,0.00,Rain,Light Rain,0,2014-01-09 03:53:00
7:53 PM,35.1,34.0,96,29.22,6.0,NE,3.5,-,0.03,Rain,Light Rain,50,2014-01-09 04:53:00
8:53 PM,35.1,33.1,92,29.22,5.0,Calm,Calm,-,0.03,Rain,Light Rain,0,2014-01-09 05:53:00
9:53 PM,35.1,34.0,96,29.21,6.0,Calm,Calm,-,0.03,Rain,Light Rain,0,2014-01-09 06:53:00
10:46 PM,34.0,33.1,96,29.21,6.0,Calm,Calm,-,0.00,Rain,Light Rain,0,2014-01-09 07:46:00
10:53 PM,34.0,33.1,96,29.21,7.0,Calm,Calm,-,0.00,Rain,Light Rain,0,2014-01-09 07:53:00
11:53 PM,34.0,33.1,96,29.20,5.0,Calm,Calm,-,0.01,Rain,Light Rain,0,2014-01-09 08:53:00